Find Starlink 5261

NORAD ID: 55276 Int'l Des: 2023-010 Owner: SPXS Country: US Constellation: starlink operational
LEOCIRCULAR

現在のビュー

3D地球を読み込み中...

About Starlink 5261

Starlink 5261 (NORAD 55276) is a starlink constellation satellite (v1.5) launched Jan 19, 2023 by SPXS of US. It operates in LEO, CIRCULAR orbit with a mass of 305.00 kg.

Starlink 5261について

説明を読み込み中...

次回通過

Passes for default location (London). Set your location on the main map for personalized predictions.

高度履歴

Loading altitude history...

軌道要素

1 55276U 23010H 26171.28127163 .00000148 00000-0 20169-4 0 9993
2 55276 69.9992 125.8979 0003638 264.6915 95.3829 14.98329401188638
Epoch: Jun 20, 2026 • Age: 36 hours

現在のステータス

高度 589.2 km
速度 7.57 km/s
衛星直下点 -51.50°S, 133.42°E
打ち上げ日 Jan 19, 2023
運用期間 3.4 years
タイプ internet

技術仕様

分類 Payload
質量 305.00 kg
乾燥質量 290.00 kg
総質量 305.00 kg
長さ 0.20 m
直径 2.80 m
スパン 9.00 m
形状 Box + pan
製造者 SPXS
バスタイプ Starlink
フェーズステータス In Orbit
所有者/国 SPXS/US

Most Searched